Location: Newark
(45.8667°N, 9.7333°E)
Time: 03:36:46
(UTC+00:00)

Transit 4A - Pass Details

Date: 30 January 2020
Orbit: 872 x 973 km, 66.8° (Epoch: 16 February)

Event Time Altitude Azimuth Distance (km) Brightness Sun altitude
Rises 03:19:06 0° 164° (SSE) 3,545 11.0 -36.0°
Reaches altitude 10° 03:22:25 10° 146° (SSE) 2,589 10.4 -35.5°
Maximum altitude 03:26:20 18° 105° (ESE) 2,041 10.2 -34.8°
Drops below altitude 10° 03:30:13 10° 64° (ENE) 2,559 10.9 -34.1°
Sets 03:33:26 0° 46° (NE) 3,490 11.6 -33.6°
